Date String (YYYY-MM-DD hh:mm:ss) UTC,Instrument flags,Ambient pressure (hPa),Sample flow (lpm),Bypass flow (lpm),Sample temperature (°C),Ambient temperature (°C),ASC tube jacket temperature (°C),LED temperature (°C),Box temperature (°C),Sample RH (%),Span deviation,Mass concentration (μg/m³),Mass concentration (μg/m³),Mass concentration (μg/m³)
DateTimeUTC,F1_M11,P_M11,Q1_M11,Q2_M11,T1_M11,T2_M11,T3_M11,T4_M11,T5_M11,U1_M11,ZSPAN_M11,X0_M11,X2_M11,X1_M11
2022-07-06 02:00:00,,0826.0,5.00,0.00,29.3,27.6,00.0,38.1,31.2,24.0,0000.0,0002.08,0001.36,0001.04
2022-07-06 02:01:00,,0826.0,5.01,0.00,29.3,27.8,00.0,38.1,31.2,24.0,0000.0,0001.88,0001.31,0001.03
2022-07-06 02:02:00,,0826.0,5.00,0.00,29.3,27.9,00.0,38.1,31.3,23.9,0000.0,0001.81,0001.28,0001.02
2022-07-06 02:03:00,,0826.0,5.00,0.00,29.4,28.1,00.0,38.1,31.3,23.8,0000.0,0001.80,0001.28,0001.02
2022-07-06 02:04:00,,0826.0,5.00,0.00,29.4,28.2,00.0,38.1,31.4,23.9,0000.0,0001.82,0001.29,0001.02
2022-07-06 02:05:00,,0826.0,5.01,0.00,29.4,28.3,00.0,38.1,31.4,23.8,0000.0,0001.82,0001.30,0001.02
2022-07-06 02:06:00,,0826.0,5.01,0.00,29.5,28.4,00.0,38.1,31.4,23.7,0000.0,0001.82,0001.29,0001.02
2022-07-06 02:07:00,,0826.0,5.00,0.00,29.5,28.4,00.0,38.2,31.5,23.6,0000.0,0001.85,0001.28,0001.01
2022-07-06 02:08:00,,0826.1,5.00,0.00,29.5,28.5,00.0,38.2,31.5,23.6,0000.0,0002.31,0001.29,0001.00
2022-07-06 02:09:00,,0826.2,5.00,0.00,29.6,28.6,00.0,38.2,31.6,23.5,0000.0,0002.41,0001.31,0000.99
2022-07-06 02:10:00,,0826.0,4.99,0.00,29.6,28.5,00.0,38.2,31.6,23.4,0000.0,0002.42,0001.26,0000.98
2022-07-06 02:11:00,,0826.0,5.00,0.00,29.6,27.8,00.0,38.2,31.5,23.4,0000.0,0002.41,0001.23,0000.98
2022-07-06 02:12:00,,0826.0,4.99,0.00,29.6,27.5,00.0,38.2,31.4,23.4,0000.0,0002.45,0001.25,0000.98
2022-07-06 02:13:00,,0826.0,5.00,0.00,29.5,27.4,00.0,38.2,31.3,23.0,0000.0,0002.55,0001.28,0000.98
2022-07-06 02:14:00,,0826.0,5.00,0.00,29.5,27.5,00.0,38.2,31.3,23.0,0000.0,0002.78,0001.31,0000.98
2022-07-06 02:15:00,,0826.0,4.99,0.00,29.5,27.7,00.0,38.2,31.3,23.2,0000.0,0002.87,0001.31,0000.98
2022-07-06 02:16:00,,0826.0,5.01,0.00,29.5,27.8,00.0,38.2,31.3,23.2,0000.0,0002.88,0001.31,0000.97
2022-07-06 02:17:00,,0826.0,5.00,0.00,29.5,27.9,00.0,38.2,31.4,23.3,0000.0,0002.89,0001.31,0000.97
2022-07-06 02:18:00,,0826.0,5.00,0.00,29.5,28.1,00.0,38.2,31.4,23.4,0000.0,0002.96,0001.33,0000.97
2022-07-06 02:19:00,,0826.0,5.00,0.00,29.5,28.2,00.0,38.2,31.4,23.3,0000.0,0002.73,0001.33,0000.96
2022-07-06 02:20:00,,0826.0,4.99,0.00,29.5,28.3,00.0,38.2,31.5,23.2,0000.0,0002.71,0001.34,0000.96
2022-07-06 02:21:00,,0826.1,5.00,0.00,29.6,28.4,00.0,38.3,31.5,23.1,0000.0,0002.68,0001.37,0000.97
2022-07-06 02:22:00,,0826.1,5.01,0.00,29.6,28.5,00.0,38.3,31.5,23.1,0000.0,0002.67,0001.41,0000.98
2022-07-06 02:23:00,,0826.1,4.99,0.00,29.6,28.5,00.0,38.3,31.6,23.1,0000.0,0002.69,0001.43,0000.99
2022-07-06 02:24:00,,0826.2,5.00,0.00,29.6,27.9,00.0,38.2,31.5,23.1,0000.0,0002.67,0001.42,0000.99
2022-07-06 02:25:00,,0826.1,5.00,0.00,29.6,27.5,00.0,38.2,31.5,23.2,0000.0,0002.44,0001.38,0000.97
2022-07-06 02:26:00,,0826.2,4.99,0.00,29.6,27.4,00.0,38.2,31.4,23.2,0000.0,0002.34,0001.33,0000.97
2022-07-06 02:27:00,,0826.2,4.99,0.00,29.5,27.5,00.0,38.2,31.3,23.4,0000.0,0002.40,0001.30,0000.97
2022-07-06 02:28:00,,0826.2,5.00,0.00,29.5,27.6,00.0,38.2,31.3,23.5,0000.0,0002.39,0001.30,0000.97
2022-07-06 02:29:00,,0826.1,5.00,0.00,29.5,27.8,00.0,38.2,31.3,23.5,0000.0,0002.26,0001.26,0000.97
2022-07-06 02:30:00,,0826.1,4.98,0.00,29.5,27.9,00.0,38.2,31.4,23.5,0000.0,0002.09,0001.22,0000.96
2022-07-06 02:31:00,,0826.1,5.00,0.00,29.5,28.0,00.0,38.2,31.4,23.4,0000.0,0002.04,0001.19,0000.96
2022-07-06 02:32:00,,0826.1,5.01,0.00,29.5,28.2,00.0,38.2,31.4,23.4,0000.0,0001.96,0001.16,0000.95
2022-07-06 02:33:00,,0826.1,5.00,0.00,29.5,28.3,00.0,38.3,31.5,23.4,0000.0,0001.88,0001.11,0000.94
2022-07-06 02:34:00,,0826.2,5.00,0.00,29.6,28.4,00.0,38.3,31.5,23.4,0000.0,0001.76,0001.06,0000.93
2022-07-06 02:35:00,,0826.2,5.00,0.00,29.6,28.5,00.0,38.3,31.6,23.4,0000.0,0001.68,0001.04,0000.93
2022-07-06 02:36:00,,0826.2,4.99,0.00,29.6,28.5,00.0,38.3,31.6,23.5,0000.0,0001.67,0001.04,0000.93
2022-07-06 02:37:00,,0826.2,4.99,0.00,29.7,28.2,00.0,38.3,31.6,23.5,0000.0,0002.05,0001.07,0000.94
2022-07-06 02:38:00,,0826.2,4.99,0.00,29.6,27.6,00.0,38.3,31.5,23.5,0000.0,0003.01,0001.12,0000.94
2022-07-06 02:39:00,,0826.2,5.01,0.00,29.6,27.4,00.0,38.2,31.4,23.3,0000.0,0003.11,0001.15,0000.94
2022-07-06 02:40:00,,0826.2,5.00,0.00,29.6,27.5,00.0,38.3,31.3,23.4,0000.0,0003.52,0001.17,0000.95
2022-07-06 02:41:00,,0826.2,4.99,0.00,29.5,27.6,00.0,38.2,31.3,23.4,0000.0,0003.53,0001.18,0000.95
2022-07-06 02:42:00,,0826.2,5.00,0.00,29.5,27.7,00.0,38.2,31.3,23.3,0000.0,0003.49,0001.20,0000.95
2022-07-06 02:43:00,,0826.2,5.01,0.00,29.5,27.8,00.0,38.2,31.4,23.3,0000.0,0003.98,0001.19,0000.94
2022-07-06 02:44:00,,0826.2,5.00,0.00,29.5,28.0,00.0,38.3,31.4,23.3,0000.0,0004.15,0001.24,0000.94
2022-07-06 02:45:00,,0826.2,4.99,0.00,29.5,28.1,00.0,38.3,31.4,23.3,0000.0,0004.27,0001.29,0000.93
2022-07-06 02:46:00,,0826.2,5.00,0.00,29.5,28.2,00.0,38.3,31.5,23.2,0000.0,0004.40,0001.35,0000.93
2022-07-06 02:47:00,,0826.2,5.01,0.00,29.6,28.3,00.0,38.3,31.5,23.0,0000.0,0004.46,0001.37,0000.93
2022-07-06 02:48:00,,0826.2,5.00,0.00,29.6,28.4,00.0,38.3,31.5,23.0,0000.0,0004.48,0001.37,0000.92
2022-07-06 02:49:00,,0826.3,4.99,0.00,29.6,28.5,00.0,38.3,31.6,23.0,0000.0,0003.25,0001.36,0000.92
2022-07-06 02:50:00,,0826.4,5.00,0.00,29.7,28.6,00.0,38.3,31.6,23.0,0000.0,0002.99,0001.31,0000.91
2022-07-06 02:51:00,,0826.4,5.00,0.00,29.7,28.2,00.0,38.3,31.6,23.0,0000.0,0002.83,0001.32,0000.91
2022-07-06 02:52:00,,0826.4,5.01,0.00,29.7,27.6,00.0,38.3,31.5,23.0,0000.0,0002.75,0001.31,0000.90
2022-07-06 02:53:00,,0826.4,5.01,0.00,29.6,27.4,00.0,38.3,31.5,23.0,0000.0,0002.71,0001.29,0000.90
2022-07-06 02:54:00,,0826.4,4.99,0.00,29.6,27.5,00.0,38.3,31.4,23.1,0000.0,0002.27,0001.28,0000.90
2022-07-06 02:55:00,,0826.5,5.01,0.00,29.5,27.6,00.0,38.3,31.4,23.2,0000.0,0002.08,0001.27,0000.89
2022-07-06 02:56:00,,0826.5,5.00,0.00,29.5,27.8,00.0,38.3,31.4,23.3,0000.0,0002.02,0001.24,0000.89
2022-07-06 02:57:00,,0826.4,5.00,0.00,29.5,27.9,00.0,38.3,31.4,23.3,0000.0,0002.00,0001.23,0000.88
2022-07-06 02:58:00,,0826.5,4.99,0.00,29.5,28.0,00.0,38.3,31.4,23.2,0000.0,0001.93,0001.20,0000.88
2022-07-06 02:59:00,,0826.5,5.00,0.00,29.6,28.2,00.0,38.3,31.5,23.3,0000.0,0001.85,0001.17,0000.88
